STARLINK-1405, 45702

Orbit data source: Space-Track

STARLINK-1405, 45702 is a payload satellite owned by SpaceX/Seattle (US) in LEO that was launched on Thu, 04 Jun 2020 UTC via an FALCON 9 launch vehicle from the Air Force Eastern Test Range (AFETR). Payload-class satellites include a variety of spacecraft equipped with specific instruments for various scientific and technological missions. These include communications satellites like Starlink; space stations such as the ISS; scientific satellites like the Hubble; Earth observation satellites from companies like Planet Labs, Umbra, and HawkEye 360; GPS; miniature CubeSats for education and research; and military/defense satellites.

Loading next visibility...
Identifier
45702, 2020-035AX
Orbit
LEO
Last TLE update
9 hours ago
Origin
Manufacturer
SpaceX/Seattle
Mission
Non-operational Commercial Communications
Bus & Motor
STARLINK, Unknown motor
Mass
260 kg wet, ~248 kg dry
Launch date (UTC)
2020-06-04 (5 years ago)
Launch vehicle
FALCON 9
Launch site
Air Force Eastern Test Range (AFETR)
Object type
Payload
Rocket body
Debris
Shape & HBR
Box + 1 Pan, 8.86 m
Radar Cross Section
13.562 m², Large (>1 m²)

Expand to show TLE details & history

TLE from 9 hours ago
0 STARLINK-1405
1 45702U 20035AX  25191.75432927  .00198909  00000-0  20901-2 0  9995
2 45702  53.0219   2.1164 0004664 286.8063  73.2438 15.63173962283246
Epoch: 2025-07-10T18:06Z
TLE epoch observation values (Epoch: 2025-07-10T18:06:14.048Z)
Latitude
-0.00008°
Longitude
161.64173°
Altitude
378.486 km
Speed
7.684 km/s
True Right ascension
00h 08m 27s
True Declination
0° 00' 00"
Sunlit
Object was in daylight at epoch
Visualization orbit readout
Latitude
-52.24468°
Longitude
55.05144°
Altitude
393.374 km
Speed
7.676 km/s
Apparent Right ascension
23h 18m 53s
Apparent Declination
-76° 11' 49"
Sunlit
Object is in full shadow
Visualization observer readout
Local Sidereal Time
15:09:54
Azimuth
163.076° S
Elevation
-46.118°
Doppler factor
1
Orbital elements
Apogee altitude
381.93 km
Perigee altitude
375.627 km
Semi-major axis
6,756.915 km
Eccentricity
0.00047
Inclination
53.0219°
RAAN
2.1164°
Arg. of periapsis
286.8063°
True anomaly
Unknown
Mean anomaly
73.2438°
Eccentric anomaly
Unknown
Mean motion
3.90769 °/min
Orbital period
92.13 mins
BSTAR
0.0020901
Loading maneuver chart data...
Loading SW <> Apogee altitude chart data...

STARLINK-1405 Visibility forecast

Observer location: undefined°, undefined°

Span
Click to sort rows by Start time (UTC) header in descending order
Start Az.
Max El. time (UTC)
Max El. Az.
Max El.
End time (UTC)
End Az.
5 mins2025-07-11 14:14:16.287Z235.818° WSW2025-07-11 14:17:16.287Z19.088° NNE41.405°2025-07-11 14:19:16.287Z45.734° ENE
4 mins2025-07-11 20:41:16.287Z316.082° NNW2025-07-11 20:43:16.287Z53.138° ENE43.678°2025-07-11 20:45:16.287Z122.145° SE
|